Retour au catalogue

ATLAS 5 CENTAUR DEB

ActifHEO
NORAD 43951·DEBRIS·🇺🇸 United States

Lancé Sep 17, 2014 depuis Cape Canaveral Space Force Station

Loading…

Prochains Passages (prochaines 24 heures)

TLE

FraisSource: Space-Track

Époque: Sep 13, 2026, 19:42 UTC

1 43951U 14055E   26256.82114476 -.00000131  00000-0  00000-0 0  9997
2 43951  20.7096 114.9915 4848746 219.0563  93.3812  1.89436050 55579

Suivez ATLAS 5 CENTAUR DEB en temps réel avec AllMySat

Download on the App Store